• In Uzbekistan
  • List of Countries
  • For 7 days
  • Water Temperature
  • Satellite Maps
  • Weather Map
  • Weather Widgets
  • user-avatar
    Login

    Hourly Weather San Juan

    Today, 29 March, Wednesday

    Time Temperature Precipitation Wind Pressure Humidity
    00:00 +24°C° 0.4 mm 2 mps 704 mmHg 76%
    01:00 +23°C° 0.4 mm 2 mps 704 mmHg 79%
    02:00 +23°C° 0.1 mm 2 mps 704 mmHg 81%
    03:00 +23°C° 0.1 mm 2 mps 703 mmHg 82%
    04:00 +23°C° 0.1 mm 2 mps 703 mmHg 84%
    05:00 +23°C° 0 mm 2 mps 703 mmHg 80%
    06:00 +24°C° 0 mm 2 mps 703 mmHg 76%
    07:00 +25°C° 0 mm 2 mps 703 mmHg 72%
    08:00 +27°C° 0 mm 2 mps 703 mmHg 64%
    09:00 +28°C° 0 mm 3 mps 703 mmHg 56%
    10:00 +30°C° 0 mm 4 mps 703 mmHg 48%
    11:00 +32°C° 0.2 mm 4 mps 702 mmHg 43%
    12:00 +33°C° 0.2 mm 4 mps 702 mmHg 38%
    13:00 +34°C° 0.2 mm 4 mps 701 mmHg 33%
    14:00 +34°C° 0.1 mm 4 mps 701 mmHg 32%
    15:00 +34°C° 0.1 mm 4 mps 701 mmHg 31%
    16:00 +34°C° 0.1 mm 4 mps 700 mmHg 30%
    17:00 +30°C° 0.1 mm 4 mps 701 mmHg 40%
    18:00 +28°C° 0.1 mm 3 mps 701 mmHg 50%
    19:00 +26°C° 0.1 mm 2 mps 701 mmHg 60%
    20:00 +25°C° 0.1 mm 2 mps 702 mmHg 64%
    21:00 +24°C° 0.1 mm 2 mps 702 mmHg 67%
    22:00 +24°C° 0.1 mm 2 mps 702 mmHg 71%
    23:00 +23°C° 0.1 mm 2 mps 702 mmHg 73%

    Tomorrow, 30 March, Thursday

    Time Temperature Precipitation Wind Pressure Humidity
    00:00 +23°C° 0.1 mm 2 mps 703 mmHg 75%
    01:00 +22°C° 0.1 mm 3 mps 703 mmHg 77%
    02:00 +22°C° 0 mm 4 mps 703 mmHg 76%
    03:00 +21°C° 0 mm 5 mps 704 mmHg 75%
    04:00 +21°C° 0 mm 7 mps 704 mmHg 75%
    05:00 +22°C° 0 mm 6 mps 704 mmHg 69%
    06:00 +22°C° 0 mm 6 mps 705 mmHg 64%
    07:00 +22°C° 0 mm 6 mps 705 mmHg 59%
    08:00 +23°C° 0 mm 5 mps 705 mmHg 54%
    09:00 +25°C° 0 mm 5 mps 705 mmHg 50%
    10:00 +26°C° 0 mm 5 mps 705 mmHg 46%
    11:00 +27°C° 0 mm 4 mps 705 mmHg 43%
    12:00 +28°C° 0 mm 4 mps 704 mmHg 41%
    13:00 +29°C° 0 mm 3 mps 703 mmHg 39%
    14:00 +29°C° 0 mm 3 mps 703 mmHg 40%
    15:00 +29°C° 0 mm 3 mps 702 mmHg 41%
    16:00 +28°C° 0 mm 3 mps 702 mmHg 41%
    17:00 +27°C° 0 mm 3 mps 703 mmHg 47%
    18:00 +25°C° 0 mm 3 mps 703 mmHg 52%
    19:00 +24°C° 0 mm 3 mps 704 mmHg 58%
    20:00 +22°C° 0 mm 3 mps 704 mmHg 61%
    21:00 +22°C° 0 mm 3 mps 704 mmHg 64%
    22:00 +21°C° 0 mm 2 mps 704 mmHg 67%
    23:00 +20°C° 0 mm 2 mps 704 mmHg 70%

    Day after tomorrow, 31 March, Friday

    Time Temperature Precipitation Wind Pressure Humidity
    00:00 +20°C° 0 mm 2 mps 704 mmHg 72%
    01:00 +20°C° 0 mm 1 mps 704 mmHg 75%
    02:00 +20°C° 0 mm 1 mps 704 mmHg 76%
    03:00 +20°C° 0 mm 1 mps 703 mmHg 77%
    04:00 +19°C° 0 mm 2 mps 703 mmHg 78%
    05:00 +19°C° 0 mm 2 mps 704 mmHg 75%
    06:00 +20°C° 0 mm 2 mps 704 mmHg 72%
    07:00 +21°C° 0 mm 2 mps 705 mmHg 69%
    08:00 +23°C° 0 mm 2 mps 705 mmHg 65%
    09:00 +25°C° 0 mm 2 mps 705 mmHg 60%
    10:00 +26°C° 0 mm 2 mps 705 mmHg 56%
    11:00 +28°C° 0 mm 2 mps 705 mmHg 52%
    12:00 +29°C° 0 mm 2 mps 704 mmHg 48%
    13:00 +30°C° 0 mm 2 mps 704 mmHg 44%
    14:00 +30°C° 0 mm 3 mps 704 mmHg 44%
    15:00 +30°C° 0 mm 3 mps 704 mmHg 45%
    16:00 +30°C° 0 mm 4 mps 703 mmHg 46%
    17:00 +28°C° 0.1 mm 4 mps 704 mmHg 52%
    18:00 +27°C° 0.1 mm 4 mps 705 mmHg 59%
    19:00 +25°C° 0.1 mm 4 mps 705 mmHg 66%
    20:00 +25°C° 0.2 mm 4 mps 706 mmHg 70%
    21:00 +24°C° 0.2 mm 3 mps 706 mmHg 73%
    22:00 +24°C° 0.2 mm 3 mps 707 mmHg 77%
    23:00 +22°C° 0.3 mm 3 mps 706 mmHg 80%

    1 April, Saturday

    Time Temperature Precipitation Wind Pressure Humidity
    00:00 +23°C° 0.3 mm 2 mps 706 mmHg 83%
    01:00 +21°C° 0.3 mm 2 mps 706 mmHg 86%
    02:00 +21°C° 0.2 mm 2 mps 706 mmHg 87%
    03:00 +20°C° 0.2 mm 2 mps 705 mmHg 88%
    04:00 +20°C° 0.2 mm 3 mps 705 mmHg 89%
    05:00 +21°C° 0 mm 3 mps 705 mmHg 86%
    06:00 +21°C° 0 mm 3 mps 706 mmHg 84%
    07:00 +21°C° 0 mm 3 mps 706 mmHg 81%
    08:00 +24°C° 0 mm 3 mps 706 mmHg 75%
    09:00 +25°C° 0 mm 3 mps 706 mmHg 69%
    10:00 +26°C° 0 mm 3 mps 706 mmHg 63%
    11:00 +27°C° 0.1 mm 3 mps 706 mmHg 60%
    12:00 +28°C° 0.1 mm 3 mps 705 mmHg 56%
    13:00 +29°C° 0.1 mm 3 mps 704 mmHg 53%
    14:00 +28°C° 0.2 mm 4 mps 704 mmHg 54%
    15:00 +28°C° 0.2 mm 4 mps 704 mmHg 56%
    16:00 +28°C° 0.2 mm 5 mps 704 mmHg 57%
    17:00 +27°C° 0.4 mm 5 mps 704 mmHg 64%
    18:00 +25°C° 0.4 mm 5 mps 705 mmHg 71%
    19:00 +23°C° 0.4 mm 5 mps 705 mmHg 78%
    20:00 +22°C° 0.2 mm 4 mps 705 mmHg 79%
    21:00 +22°C° 0.2 mm 4 mps 706 mmHg 81%
    22:00 +21°C° 0.2 mm 4 mps 706 mmHg 82%
    23:00 +21°C° 0.1 mm 3 mps 705 mmHg 84%

    2 April, Sunday

    Time Temperature Precipitation Wind Pressure Humidity
    00:00 +21°C° 0.1 mm 3 mps 705 mmHg 86%
    01:00 +20°C° 0.1 mm 3 mps 705 mmHg 88%
    02:00 +20°C° 0.2 mm 3 mps 704 mmHg 89%
    03:00 +20°C° 0.2 mm 3 mps 704 mmHg 89%
    04:00 +20°C° 0.2 mm 3 mps 704 mmHg 90%
    05:00 +20°C° 0.1 mm 2 mps 705 mmHg 88%
    06:00 +20°C° 0.1 mm 2 mps 705 mmHg 87%
    07:00 +21°C° 0.1 mm 2 mps 705 mmHg 85%
    08:00 +23°C° 0 mm 2 mps 705 mmHg 77%
    09:00 +24°C° 0 mm 2 mps 705 mmHg 69%
    10:00 +25°C° 0 mm 2 mps 705 mmHg 61%
    11:00 +27°C° 0 mm 2 mps 705 mmHg 54%
    12:00 +28°C° 0 mm 2 mps 704 mmHg 48%
    13:00 +29°C° 0 mm 2 mps 704 mmHg 41%
    14:00 +29°C° 0 mm 3 mps 704 mmHg 41%
    15:00 +29°C° 0 mm 3 mps 704 mmHg 41%
    16:00 +29°C° 0 mm 4 mps 704 mmHg 42%
    17:00 +27°C° 0 mm 4 mps 705 mmHg 50%
    18:00 +26°C° 0 mm 4 mps 706 mmHg 59%
    19:00 +23°C° 0 mm 4 mps 706 mmHg 67%
    20:00 +23°C° 0.1 mm 4 mps 707 mmHg 71%
    21:00 +22°C° 0.1 mm 4 mps 707 mmHg 75%
    22:00 +21°C° 0.1 mm 4 mps 707 mmHg 80%
    23:00 +21°C° 0.1 mm 3 mps 707 mmHg 82%

    3 April, Monday

    Time Temperature Precipitation Wind Pressure Humidity
    00:00 +20°C° 0.1 mm 3 mps 707 mmHg 85%
    01:00 +20°C° 0.1 mm 2 mps 707 mmHg 88%
    02:00 +19°C° 0 mm 2 mps 707 mmHg 89%
    03:00 +19°C° 0 mm 2 mps 706 mmHg 90%
    04:00 +19°C° 0 mm 2 mps 706 mmHg 91%
    05:00 +19°C° 0 mm 2 mps 706 mmHg 89%
    06:00 +19°C° 0 mm 2 mps 707 mmHg 88%
    07:00 +20°C° 0 mm 2 mps 707 mmHg 86%
    08:00 +21°C° 0 mm 2 mps 707 mmHg 78%
    09:00 +23°C° 0 mm 2 mps 706 mmHg 71%
    10:00 +24°C° 0 mm 2 mps 706 mmHg 63%
    11:00 +25°C° 0 mm 2 mps 706 mmHg 59%
    12:00 +26°C° 0 mm 1 mps 705 mmHg 54%
    13:00 +27°C° 0 mm 1 mps 704 mmHg 50%
    14:00 +27°C° 0 mm 2 mps 704 mmHg 49%
    15:00 +28°C° 0 mm 2 mps 704 mmHg 49%
    16:00 +28°C° 0 mm 3 mps 703 mmHg 48%
    17:00 +26°C° 0 mm 3 mps 704 mmHg 54%
    18:00 +25°C° 0 mm 3 mps 704 mmHg 60%
    19:00 +22°C° 0 mm 3 mps 705 mmHg 66%
    20:00 +23°C° 0 mm 2 mps 705 mmHg 70%
    21:00 +21°C° 0 mm 2 mps 705 mmHg 74%
    22:00 +21°C° 0 mm 1 mps 705 mmHg 77%
    23:00 +21°C° 0 mm 1 mps 704 mmHg 79%
    Show more